Regional Weather Roundup
Issued by NWS Memphis, TN

Home | Current Version | Previous Version | Text Only | Print | Product List | Glossary On
Versions: 1 2 3 4 5 6 7 8 9 10 11 12 13 14 15 16 17 18 19 20 21 22 23 24 25 26 27 28 29 30 31 32 33 34 35 36 37 38 39 40 41 42 43 44 45 46 47 48 49 50
000
ASUS44 KMEG 222310
RWRMEG
MEMPHIS CWA HOURLY WEATHER ROUNDUP
NATIONAL WEATHER SERVICE MEMPHIS TN
500 PM CST MON DEC 22 2014

...WEST TENNESSEE...

CITY           SKY/WX    TMP DP  RH WIND       PRES   REMARKS
MEMPHIS INTL   LGT RAIN  57  53  86 S9        29.61S
NWS MEMPHIS      N/A     55 N/A N/A MISG        N/A
JACKSON        CLOUDY    55  50  83 S12G21    29.62F
LEXINGTON      CLOUDY    54  48  82 SE9       29.66F
SAVANNAH       CLOUDY    52  52 100 SE9       29.68F
DYERSBURG      CLOUDY    54  41  62 S7        29.63S
UNION CITY     CLOUDY    52  50  93 S9        29.61S
PARIS          CLOUDY    50  46  87 SE12      29.64S
HUNTINGDON     CLOUDY    52  48  86 SE12      29.64F


...EASTERN ARKANSAS...

CITY           SKY/WX    TMP DP  RH WIND       PRES   REMARKS
JONESBORO      LGT RAIN  54  53  97 SW7       29.58F
WEST MEMPHIS   LGT RAIN  55  55 100 S7        29.60S FOG
BATESVILLE     CLOUDY    54  50  87 S8        29.58R
NEWPORT        CLOUDY    54  53  96 S10       29.59F FOG
WALNUT RIDGE   CLOUDY    54  48  82 S9        29.57S
BLYTHEVILLE    CLOUDY    54  53  97 S9        29.60S
SEARCY         LGT RAIN  54  53  97 SW3       29.61R FOG
STUTTGART      MOCLDY    55  52  88 S7        29.60S
PINE BLUFF     CLOUDY    56  53  90 CALM      29.60R
MONTICELLO     CLOUDY    59  56  89 S3        29.60R


...NORTH MISSISSIPPI...

CITY           SKY/WX    TMP DP  RH WIND       PRES   REMARKS
TUPELO         LGT RAIN  54  52  93 S13       29.68F
OXFORD         CLOUDY    54  52  94 SE10      29.65S FOG
OLIVE BRANCH   CLOUDY    54  54 100 S10       29.63R
TUNICA         MOCLDY    55  54  94 SE13      29.61F
CLARKSDALE     CLOUDY    59  57  94 SE12      29.61F
CORINTH        CLOUDY    54  52  94 SE10      29.66F
GRENADA        CLOUDY    55  55 100 SE9       29.65F
GREENWOOD      CLOUDY    60  57  89 S12       29.63F
COLUMBUS       CLOUDY    55  55 100 SE6       29.71S
STARKVILLE     FOG       54  54 100 SE7       29.69S VSB 3/4
GOLDEN TRIANGL CLOUDY    55  54  94 MISG      29.69F FOG


...SOUTHEAST MISSOURI...

CITY           SKY/WX    TMP DP  RH WIND       PRES   REMARKS
WEST PLAINS    CLOUDY    50  47  89 S12       29.54R
POPLAR BLUFF   CLOUDY    53  50  89 S8        29.57S
CAPE GIRARDEAU LGT RAIN  52  51  97 S9        29.59S FOG


...NORTHWEST ALABAMA...

CITY           SKY/WX    TMP DP  RH WIND       PRES   REMARKS
MUSCLE SHOALS  CLOUDY    53  50  89 SE9       29.73F FOG


...MIDDLE TENNESSEE...

CITY           SKY/WX    TMP DP  RH WIND       PRES   REMARKS
NASHVILLE      CLOUDY    52  48  86 SE12      29.74F
CLARKSVILLE    CLOUDY    53  48  83 SE13      29.68F
COLUMBIA       CLOUDY   N/A N/A N/A SE6       29.71F


...WESTERN KENTUCKY...

CITY           SKY/WX    TMP DP  RH WIND       PRES   REMARKS
PADUCAH        CLOUDY    53  50  89 S9        29.62S
FORT CAMPBELL  CLOUDY    53  48  83 SE14      29.67F


...CENTRAL ARKANSAS...

CITY           SKY/WX    TMP DP  RH WIND       PRES   REMARKS
LITTLE ROCK    CLOUDY    57  52  83 S3        29.59R


SKY/WX REPORTED AS FAIR MEANS FEW OR NO CLOUDS BELOW
12 THOUSAND FEET.




USA.gov is the U.S. government's official web portal to all federal, state and local government web resources and services.